Location: Erp
(42.9417°N, 1.2009°E)
Time: 20:16:05
(UTC+00:00)

CARTOSAT-1 - Pass Details

Date: 12 January 2026
Orbit: 594 x 598 km, 97.5° (Epoch: 13 February)

Event Time Altitude Azimuth Distance (km) Brightness Sun altitude
Rises 18:28:10 0° 158° (SSE) 2,829 6.8 -18.8°
Reaches altitude 10° 18:30:20 10° 154° (SSE) 1,932 6.0 -19.2°
Maximum altitude 18:34:29 62° 74° (ENE) 679 3.4 -20.0°
Drops below altitude 10° 18:38:39 10° 355° (N) 1,946 6.0 -20.7°
Sets 18:40:50 0° 352° (N) 2,853 7.0 -21.1°
